Regional Weather Roundup
Issued by NWS

Home | Current Version | Previous Version | Text Only | Print | Product List | Glossary Off
Versions: 1 2 3 4 5 6 7 8 9 10 11 12 13 14 15 16 17 18 19 20 21 22 23 24 25 26 27 28 29 30 31 32 33 34 35 36 37 38 39 40 41 42 43 44 45 46 47 48 49 50

000
ASUS43 KFSD 041202
RWRSD

WEATHER ROUNDUP FOR SOUTH DAKOTA
NATIONAL WEATHER SERVICE SIOUX FALLS SD
700 AM CDT SAT JUL 04 2015

NOTE: "FAIR" INDICATES FEW OR NO CLOUDS BELOW 12,000 FEET WITH NO
SIGNIFICANT WEATHER AND/OR OBSTRUCTIONS TO VISIBILITY.


SDZ001>005-009-010-012>017-041300-
NORTHWEST AND NORTH CENTRAL SOUTH DAKOTA

CITY           SKY/WX    TMP DP  RH WIND       PRES   REMARKS
BUFFALO          N/A     63  60  90 SE7       29.79F
FAITH            N/A     63  59  87 SE15      29.85F
MOBRIDGE       PTCLDY    68  67  96 SE12      29.85F FOG
$$

SDZ012>016-024>037-041>051-057-063-072>074-041300-
SOUTHWEST AND SOUTH CENTRAL SOUTH DAKOTA

CITY           SKY/WX    TMP DP  RH WIND       PRES   REMARKS
RAPID CTY ARPT PTCLDY    61  59  93 SE8       29.88S
PIERRE         PTCLDY    64  62  93 SE9       29.87S
CUSTER         CLEAR     56  51  84 NW3       30.03S HAZE
ELLSWORTH AFB  PTCLDY    67  58  74 S12       29.86F
PHILIP         MOCLDY    64  61  90 E6        29.87S FOG
PINE RIDGE     PTCLDY    69  59  70 S24G31    29.91S
WINNER         FAIR      68  60  75 S14G23    29.91S
$$

SDZ004>011-016>023-039-040-041300-
NORTHEAST SOUTH DAKOTA

CITY           SKY/WX    TMP DP  RH WIND       PRES   REMARKS
ABERDEEN       CLEAR     63  62  97 S5        29.91S FOG
WATERTOWN      SUNNY     64  62  93 SE3       29.95R FOG
BROOKINGS      SUNNY     63  59  88 SE5       29.97S
SISSETON         N/A     62  60  93 SE5       29.91R
$$

SDZ017-020-022-023-036>040-048>070-041300-
SOUTHEAST SOUTH DAKOTA

CITY           SKY/WX    TMP DP  RH WIND       PRES   REMARKS
SIOUX FALLS    MOSUNNY   62  60  93 CALM      29.96S FOG
HURON          CLEAR     63  62  97 SE8       29.91S FOG
CHAMBERLAIN    PTCLDY    64  63  95 S5        29.92S
MITCHELL       CLEAR     63  62  97 S7        29.94R FOG
YANKTON          N/A     59  57  94 SE5       29.96S VSB 3/4
$$

ABBREVIATIONS USED IN REMARKS
   TC - TEMPERATURE IN CELSIUS
  WCI - WIND CHILL INDEX
   HX - HEAT INDEX
  VSB - VISIBILITY



USA.gov is the U.S. government's official web portal to all federal, state and local government web resources and services.